SCP
0 0 0 -0 0 -0 0 0 0 0 0 0 0 0 0 0 0 0 0 0 -0 -0 -0 -0 -0 -0 -0 -0 -0 -0 -0 -0 -0 0 0 0 -0 -0 -0 -0 -0 -0 0 0 0 0 0 0 0
0 0 0 -0 0 0 0 0 0 0 0 0 0 0 0 0 0 0 0 0 -0 -0 -0 -0 -0 -0 -0 -0 -0 -0 -0 -0 -0 -0 -0 -0 -0 -0 -0 0 -0 0 0 0 0 0 0 0 0
-0 -0 0 0 0 0 0 0 0 0 0 0 0 0 0 0 0 0 0 -0 -0 -0 -0 -0 -0 -0 -0 -0 -0 -0 -0 -0 -0 -0 -0 -0 -0 -0 0 0 0 0 0 0 0 0 0 0 0
0 0 -0 0 0 0 0 0 0 0 0 0 0 0 0 0 0 0 0 -0 -0 0 -0 -0 -0 -0 -0 -0 -0 -0 -0 -0 -0 -0 -0 -0 -0 0 0 0 0 0 0 0 0 0 0 0 0
0 0 0 0 0 0 0 0 0 0 0 0 0 0 0 0 0 0 0 0 -0 0 0 -0 -0 -0 -0 -0 -0 -0 -0 -0 -0 -0 -0 -0 -0 -0 0 0 0 0 0 0 0 0 0 0 0
0 0 0 0 0 0 0 0 0 0 0 0 0 0 0 0 0 0 0 0 0 0 0 -0 -0 -0 -0 -0 -0 -0 0 0 0 0 -0 0 0 0 0 0 0 0 0 0 0 0 0 0 0
0 0 0 0 0 0 0 0 0 0 0 0 0 0 0 0 0 0 0 0 0 0 0 0 0 -0 -0 -0 -0 -0 -0 0 0 0 0 0 0 0 0 0 0 0 0 0 0 0 0 0 0
0 0 0 0 0 0 0 0 0 0 0 0 0 0 0 0 0 0 0 0 0 0 0 0 0 0 0 0 -0 -0 -0 0 0 0 0 0 0 0 0 0 0 0 0 0 0 0 0 0 0
0 0 0 0 0 0 0 0 0 0 0 0 0 0 0 0 0 0 0 0 0 0 0 0 0 0 0 0 0 0 -0 0 0 0 0 0 0 0 0 0 0 0 0 0 0 0 0 0 0
0 0 0 0 0 0 0 0 0 0 0 0 0 0 0 0 0 0 0 0 0 0 0 0 0 0 0 0 0 0 0 0 0 0 0 0 0 0 0 0 0 0 0 0 0 0 0 0 0
0 0 0 0 0 0 0 0 0 0 0 0 0 0 0 0 0 0 0 0 0 0 0 0 0 0 0 0 0 0 0 0 0 0 0 0 0 0 0 0 0 0 0 0 0 0 0 0 0
0 0 0 0 0 0 0 0 0 0 0 0 0 0 0 0 0 0 0 0 0 0 0 0 0 0 0 0 0 0 0 0 0 0 0 0 0 0 0 0 0 0 0 0 0 0 0 0 0
0 0 0 0 0 0 0 0 0 0 0 0 0 0 0 0 0 0 0 0 0 0 0 0 0 0 0 0 0 0 0 0 0 0 0 0 0 0 0 0 0 0 0 0 0 0 0 0 0
0 0 0 0 0 0 0 0 0 0 0 0 0 0 0 0 0 0 0 0 0 0 0 0 0 0 0 0 0 0 0 0 0 0 0 0 0 0 0 0 0 0 0 0 0 0 0 0 0
0 0 0 0 0 0 0 0 0 0 0 0 0 0 0 0 0 0 0 0 0 0 0 0 0 0 0 0 0 0 0 0 0 0 0 0 0 0 0 0 0 0 0 0 0 0 0 0 0
0 0 0 0 0 0 0 0 0 0 0 0 0 0 0 0 0 0 0 0 0 0 0 0 0 0 0 0 0 0 0 0 0 0 0 0 0 0 0 0 0 0 0 0 0 0 0 0 0
0 0 0 0 0 0 0 0 0 0 0 0 0 0 0 0 0 0 0 0 0 0 0 0 0 0 0 0 0 0 0 0 0 0 0 0 0 0 0 0 0 0 0 0 0 0 0 0 0
0 0 0 0 0 0 0 0 0 0 0 0 0 0 0 0 0 0 0 0 0 0 0 0 0 0 0 0 0 0 0 0 0 0 0 0 0 0 0 0 0 0 0 0 0 0 0 0 0
0 0 0 0 0 0 0 0 0 0 0 0 0 0 0 0 0 0 0 0 0 0 0 0 0 0 0 0 0 0 0 0 0 0 0 0 0 0 0 0 0 0 0 0 0 0 0 0 0
0 0 0 0 0 0 0 0 0 0 0 0 0 0 0 0 0 0 0 0 0 0 0 0 0 0 0 0 0 0 0 0 0 0 0 0 0 0 0 0 0 0 0 0 0 0 0 0 0
0 0 0 0 0 0 0 0 0 0 0 0 0 0 0 0 0 0 0 0 0 0 0 0 0 0 0 0 0 0 0 0 0 0 0 0 0 0 0 0 0 0 0 0 0 0 0 0 0
0 0 0 0 0 0 0 0 0 0 0 0 0 0 0 0 0 0 0 0 0 0 0 0 0 0 0 0 0 0 0 0 0 0 0 0 0 0 0 0 0 0 0 0 0 0 0 0 0
0 0 0 0 0 0 0 0 0 0 0 0 0 0 0 0 0 0 0 0 0 0 0 0 0 0 0 0 0 0 0 0 0 0 0 0 0 0 0 0 0 0 0 0 0 0 0 0 0
0 0 0 0 0 0 0 0 0 0 0 0 0 0 0 0 0 0 0 0 0 0 0 0 0 0 0 0 0 0 0 0 0 0 0 0 0 0 0 0 0 0 0 0 0 0 0 0 0
0 0 0 0 0 0 0 0 0 0 0 0 0 0 0 0 0 0 0 0 0 0 0 0 0 0 0 0 -0 -0 -0 -0 -0 -0 -0 0 0 0 0 0 0 0 0 0 0 0 0 0 0
0 0 0 0 0 0 0 0 0 0 0 0 0 0 0 0 0 0 0 0 0 0 -0 -0 -0 -0 -0 -0 0 0 0 -0 -0 0 0 0 0 0 0 0 0 0 0 0 0 0 0 0 0
0 0 0 0 0 0 0 0 0 0 0 0 0 0 0 0 0 0 0 -0 -0 -0 -0 -0 -0 -0 -0 -0 -0 -0 0 0 0 0 0 0 0 0 0 0 0 0 0 0 0 0 0 0 0
0 0 0 0 0 0 0 0 0 0 0 0 0 0 0 0 0 -0 -0 -0 -0 -0 -0 -0 -0 -0 -0 -0 -0 -0 -0 -0 -0 -0 -0 0 0 0 0 0 0 0 0 0 0 0 0 0 0
0 0 0 0 0 0 0 0 0 0 0 0 0 0 0 0 -0 -0 -0 -0 -0 -0 -0 -0 -0 -0 -0 -0 -0 -0 -0 -0 -0 -0 -0 -0 -0 0 0 0 0 0 0 0 0 0 0 0 0
0 0 0 0 0 0 0 0 0 0 0 0 0 0 0 0 -0 -0 -0 -0 -0 0 0 0 0 0 0 0 0 0 0 0 0 0 0 0 0 0 0 0 0 0 0 0 0 0 0 0 0
Wind_Speed_500mb
13 12 8 1 7 10 5 7 1 3 1 3 2 3 4 4 6 7 3 4 7 19 32 41 41 39 37 34 32 31 29 27 25 23 18 15 17 15 17 16 12 10 6 5 5 4 5 5 2
9 6 4 5 9 6 8 8 3 5 6 4 3 2 1 3 4 3 8 5 6 14 27 39 41 40 38 35 32 30 29 26 24 22 21 22 22 22 18 20 18 14 9 9 8 7 7 5 3
5 6 4 8 7 7 7 4 5 4 3 2 1 3 2 4 4 1 3 5 7 13 22 36 39 40 39 37 35 33 31 28 25 25 25 24 25 17 21 20 17 15 11 11 9 9 8 6 4
1 4 8 8 3 7 9 7 6 3 1 2 2 4 2 5 2 0 4 5 8 13 16 31 40 40 41 39 37 35 33 31 28 27 24 23 26 28 19 19 19 17 14 12 9 8 6 6 4
8 6 8 5 8 9 4 10 9 3 3 4 1 3 7 7 7 4 2 4 6 14 18 26 38 42 41 40 40 37 34 32 30 27 28 28 27 32 21 18 19 17 14 14 12 9 7 7 7
5 5 8 2 8 10 5 3 9 4 4 2 3 7 5 5 9 7 6 3 4 10 17 25 29 42 43 42 42 40 37 35 32 32 32 30 29 35 18 18 18 17 16 16 13 10 9 8 8
8 7 5 6 6 10 5 2 9 5 3 4 1 2 8 8 11 9 5 3 6 11 17 23 28 34 44 45 44 42 40 38 35 35 32 30 30 31 18 19 20 20 19 18 14 12 13 13 12
4 8 1 5 6 7 12 13 9 7 6 3 3 5 7 17 13 15 14 14 17 18 20 23 28 33 39 46 46 45 44 40 40 40 39 38 41 40 28 23 24 23 22 20 17 16 16 16 16
2 8 3 7 3 11 17 12 7 13 17 9 11 19 28 29 28 26 24 22 21 23 26 28 29 32 36 40 45 48 48 45 44 44 46 46 46 42 34 28 26 26 25 23 20 19 18 19 18
7 7 14 10 7 7 10 5 21 10 27 27 36 30 15 26 27 28 34 35 34 28 29 31 33 32 34 40 44 51 51 48 47 48 50 51 50 47 41 35 30 31 29 26 24 23 23 25 24
10 10 9 10 11 7 10 15 7 8 14 35 39 35 39 35 25 31 38 43 45 34 26 29 31 31 34 38 41 50 49 47 49 52 54 52 51 51 49 42 35 34 34 31 30 28 28 30 30
3 19 24 16 19 14 7 17 15 17 46 47 46 43 33 38 32 32 33 39 39 34 28 23 23 27 27 32 37 44 51 49 52 53 54 55 55 55 54 50 41 40 36 34 34 31 33 35 35
10 10 16 18 30 32 29 25 20 44 38 23 19 18 17 25 30 33 35 33 34 35 28 26 23 25 26 25 28 37 43 47 51 53 54 54 55 58 58 56 52 46 41 37 37 35 37 39 39
4 9 22 28 50 42 17 10 4 22 19 22 14 23 29 26 20 27 31 31 33 36 33 28 25 22 26 25 23 25 33 36 38 42 45 49 53 56 58 58 55 49 44 40 40 41 42 44 46
7 10 15 31 17 9 5 1 14 19 24 26 27 24 14 13 9 13 14 6 15 26 26 20 16 10 18 22 22 23 25 33 36 39 40 43 45 45 47 50 50 47 41 42 44 47 47 48 50
6 4 6 9 5 1 8 14 13 21 28 41 31 15 17 18 22 19 16 15 7 5 14 19 19 10 12 19 21 21 23 29 32 35 35 38 37 37 37 41 43 39 41 46 49 50 50 49 51
6 7 9 15 5 5 6 11 25 42 39 41 18 26 29 28 25 24 20 16 12 11 8 14 15 15 15 23 25 24 22 25 27 27 29 31 34 36 38 40 39 40 44 51 51 52 53 53 53
12 9 9 9 7 1 8 18 19 52 36 18 33 35 34 37 41 36 32 28 23 24 23 18 14 11 10 12 12 14 15 17 18 17 20 24 29 32 35 37 39 44 48 51 53 54 55 57 57
5 7 10 12 14 2 14 10 22 38 30 21 41 47 46 50 46 46 48 47 43 36 28 24 14 17 7 6 9 10 8 11 15 16 19 17 23 25 29 35 39 42 46 48 50 54 55 59 59
13 14 14 10 13 5 9 22 14 29 19 40 49 48 49 50 52 53 54 57 59 57 54 45 39 33 29 24 22 15 7 5 1 6 13 17 20 21 22 27 34 39 42 42 45 51 55 57 59
8 10 9 13 7 8 3 15 7 12 40 48 47 46 46 50 54 55 56 58 56 59 58 54 52 48 44 35 24 19 15 11 7 7 9 12 15 18 19 18 22 29 37 41 43 47 53 56 55
7 14 13 9 5 6 6 7 4 5 16 26 33 44 46 49 50 51 52 54 54 52 46 45 43 41 41 38 36 36 34 33 34 30 25 20 20 20 21 23 20 16 24 35 40 43 48 52 58
13 6 7 4 5 4 6 6 8 12 7 10 18 38 42 43 45 47 48 47 45 42 40 38 36 34 34 32 31 30 30 28 25 24 23 22 22 23 24 26 29 31 31 31 34 42 47 52 58
9 6 10 10 5 1 11 12 7 10 16 13 23 33 39 40 39 39 39 38 39 34 33 32 32 32 31 31 31 31 31 31 29 30 31 31 30 29 29 30 30 33 37 42 47 46 46 51 59
6 9 2 6 4 10 8 5 7 9 21 29 30 37 36 33 32 32 31 32 32 33 32 29 28 28 27 25 25 28 28 31 35 38 40 41 41 41 40 42 40 39 39 40 45 52 59 58 58
12 14 10 13 7 8 9 10 4 11 36 49 45 38 31 26 21 23 24 25 26 24 22 26 30 30 29 28 27 25 25 28 31 35 40 44 47 47 48 47 46 45 43 44 45 47 51 61 69
10 9 2 11 5 6 8 3 5 13 16 26 35 32 26 18 13 13 13 14 16 20 24 26 26 26 29 31 30 30 32 34 34 34 36 41 46 50 53 56 59 55 51 50 52 52 51 53 59
6 7 6 5 4 7 8 10 8 18 21 15 22 31 26 20 12 6 7 11 15 21 26 29 31 34 40 43 44 46 49 47 47 48 49 49 49 51 55 58 61 64 63 60 62 62 59 57 56
2 1 6 5 7 8 3 10 2 29 27 27 33 36 31 23 15 6 5 6 10 14 22 32 33 37 41 47 49 52 55 56 56 60 63 65 65 62 64 66 68 67 67 67 70 71 71 67 66
1 9 10 8 10 6 4 18 5 24 32 39 34 27 28 22 16 7 2 7 8 13 22 34 33 37 43 48 51 57 63 68 71 75 77 77 79 79 79 78 77 75 73 72 73 75 77 77 76
Wind_Direction_500mb
326 310 310 76 56 63 299 278 150 91 51 167 235 176 203 227 161 211 188 204 158 169 176 185 192 195 197 197 191 188 188 187 187 188 179 167 176 189 203 204 210 222 229 266 288 310 315 315 318
333 344 52 77 82 68 280 275 171 217 192 158 207 186 260 281 224 217 169 199 176 170 186 189 194 199 203 203 201 198 195 196 197 200 191 188 197 199 217 225 227 234 241 258 268 286 300 285 263
360 22 43 88 107 164 194 237 229 283 163 10 106 237 292 206 204 274 254 199 211 191 191 197 200 202 205 207 206 205 206 207 206 205 209 212 238 241 227 233 240 248 253 264 280 291 294 295 273
343 32 60 79 244 246 190 201 225 139 313 34 34 340 270 223 241 316 282 245 222 217 202 202 207 207 208 210 211 212 213 214 212 213 219 220 248 263 246 232 233 243 246 254 268 285 287 282 258
23 50 48 30 283 274 218 149 94 33 330 250 215 310 302 237 222 150 173 270 242 226 216 204 209 214 214 213 215 217 218 219 216 215 221 234 243 266 255 233 236 247 260 275 287 275 255 237 224
65 65 54 319 284 286 318 165 114 63 12 359 344 312 308 278 199 182 152 202 249 233 226 218 213 216 219 219 219 221 223 223 219 220 227 233 242 255 244 234 237 246 260 275 277 271 262 237 222
88 77 201 223 257 307 274 167 128 164 283 47 334 292 286 287 252 247 231 269 259 253 236 228 226 220 222 224 223 224 225 224 223 225 228 224 238 255 260 240 237 244 256 264 260 252 235 225 219
47 90 309 268 302 287 344 339 345 322 314 151 242 249 283 327 296 266 255 284 285 262 249 240 232 229 226 225 226 227 228 225 226 227 227 224 234 260 267 258 244 250 259 262 254 245 233 229 229
144 61 255 249 21 289 337 3 354 319 286 279 264 276 297 300 308 271 268 275 274 278 262 249 241 236 235 233 231 229 230 231 229 229 229 232 236 256 276 269 251 256 261 261 257 254 245 241 244
121 126 223 213 182 254 291 299 311 316 296 294 296 301 285 322 314 296 280 284 284 276 288 266 251 244 239 238 236 231 233 225 228 231 232 237 242 258 268 275 254 255 256 257 255 251 246 246 248
177 198 220 251 258 265 280 285 257 295 298 295 301 309 303 306 295 291 285 281 287 281 271 278 261 256 250 244 239 232 237 229 229 231 237 242 246 255 265 275 267 258 258 257 253 250 246 245 246
189 248 247 274 290 305 270 297 301 266 281 308 305 304 304 308 308 303 296 298 286 285 276 269 268 257 259 257 245 238 238 238 237 239 239 243 249 258 266 272 276 266 265 261 257 253 247 247 248
212 256 256 264 282 282 277 259 267 281 297 309 326 325 343 344 321 302 291 299 272 270 271 263 264 265 259 264 264 248 241 241 243 245 246 250 255 263 269 273 275 269 262 262 260 256 253 251 251
235 283 284 289 283 280 258 270 158 274 313 311 347 354 344 341 340 305 286 274 264 263 265 255 255 266 252 259 273 275 259 252 248 248 252 256 262 267 270 271 272 274 264 263 263 262 258 255 254
295 322 316 273 279 229 198 300 226 286 290 291 311 2 357 43 67 61 51 7 265 254 250 241 243 249 248 260 268 279 281 266 254 250 262 264 267 271 272 274 272 278 268 269 267 265 260 257 254
326 40 326 295 168 129 136 264 266 307 292 287 326 75 95 89 84 83 72 70 71 250 224 197 195 190 224 242 249 261 273 270 254 261 263 269 274 275 277 280 281 283 278 277 275 271 267 264 261
347 240 216 309 317 133 140 249 273 298 287 296 54 114 110 97 85 71 66 67 73 88 142 179 169 162 184 221 228 235 247 254 256 259 265 269 270 272 275 280 284 283 280 281 280 275 272 270 269
222 220 236 236 271 41 253 246 277 280 297 285 128 116 102 88 76 75 74 77 84 91 104 125 130 138 152 174 209 229 241 254 261 273 273 274 276 276 276 275 277 278 282 283 282 281 278 276 274
168 210 229 253 261 280 266 279 261 293 296 124 121 115 101 88 86 86 82 81 83 88 91 89 95 84 120 151 176 190 214 225 241 251 257 272 275 278 278 279 282 282 285 290 290 285 281 278 277
242 251 255 283 257 226 294 295 31 27 22 112 114 110 105 99 93 87 82 78 75 74 73 74 73 72 72 75 70 67 81 70 355 260 263 267 268 266 277 285 282 280 280 285 286 283 284 282 279
213 207 219 233 302 292 326 295 108 51 72 80 91 104 101 95 89 85 82 76 72 68 65 64 65 66 63 61 62 65 67 57 39 13 340 317 301 287 275 272 285 285 281 281 285 284 283 283 281
256 233 213 236 115 232 79 277 43 93 72 68 93 105 103 97 90 82 76 73 66 60 56 53 51 51 51 46 42 38 35 32 28 17 5 346 328 308 292 282 274 270 287 290 289 286 283 280 278
223 173 173 161 140 54 318 115 260 131 107 117 106 110 106 98 91 85 78 70 63 59 53 48 44 41 37 31 25 21 18 16 8 357 354 354 348 330 309 295 288 287 281 277 280 287 283 281 279
152 102 51 39 92 246 211 161 247 193 180 151 135 121 111 103 92 79 71 65 61 55 49 42 39 37 32 24 19 14 9 1 353 347 341 341 341 336 331 324 307 294 290 287 283 277 276 281 280
112 86 333 345 341 227 169 132 256 337 141 146 139 130 117 104 91 77 61 51 46 41 41 43 47 44 36 27 18 13 5 356 353 349 346 339 335 333 334 327 321 314 307 303 296 287 279 274 273
188 169 164 205 210 245 274 241 301 48 105 131 138 134 128 113 88 66 52 40 40 41 43 37 30 28 24 19 18 12 359 355 351 343 338 336 334 330 327 324 323 320 316 311 303 298 291 283 276
189 185 198 106 44 67 224 40 114 108 102 129 141 146 140 127 95 68 57 49 47 51 49 44 41 38 29 21 15 6 357 350 342 334 328 321 319 318 316 314 314 316 315 314 308 304 298 291 285
168 161 69 8 167 260 277 268 200 177 172 172 168 169 164 170 171 129 60 46 57 52 39 27 19 14 8 5 4 1 358 352 347 341 335 329 322 318 313 310 309 307 307 308 307 304 302 297 293
128 168 84 133 152 185 243 254 242 177 175 178 188 191 188 194 202 183 124 81 47 26 14 3 356 351 349 346 345 343 342 340 334 332 331 329 323 320 316 314 311 308 307 303 300 299 300 299 297
345 202 166 155 225 227 174 261 96 157 168 176 192 203 207 209 195 173 54 16 5 354 353 349 343 339 337 334 332 332 330 329 327 324 322 321 319 317 314 312 309 306 304 301 296 295 293 294 294
Wind_Speed_850mb
13 12 8 1 7 10 5 7 1 3 1 3 2 3 4 4 6 7 3 4 7 19 32 41 41 39 37 34 32 31 29 27 25 23 18 15 17 15 17 16 12 10 6 5 5 4 5 5 2
9 6 4 5 9 6 8 8 3 5 6 4 3 2 1 3 4 3 8 5 6 14 27 39 41 40 38 35 32 30 29 26 24 22 21 22 22 22 18 20 18 14 9 9 8 7 7 5 3
5 6 4 8 7 7 7 4 5 4 3 2 1 3 2 4 4 1 3 5 7 13 22 36 39 40 39 37 35 33 31 28 25 25 25 24 25 17 21 20 17 15 11 11 9 9 8 6 4
1 4 8 8 3 7 9 7 6 3 1 2 2 4 2 5 2 0 4 5 8 13 16 31 40 40 41 39 37 35 33 31 28 27 24 23 26 28 19 19 19 17 14 12 9 8 6 6 4
8 6 8 5 8 9 4 10 9 3 3 4 1 3 7 7 7 4 2 4 6 14 18 26 38 42 41 40 40 37 34 32 30 27 28 28 27 32 21 18 19 17 14 14 12 9 7 7 7
5 5 8 2 8 10 5 3 9 4 4 2 3 7 5 5 9 7 6 3 4 10 17 25 29 42 43 42 42 40 37 35 32 32 32 30 29 35 18 18 18 17 16 16 13 10 9 8 8
8 7 5 6 6 10 5 2 9 5 3 4 1 2 8 8 11 9 5 3 6 11 17 23 28 34 44 45 44 42 40 38 35 35 32 30 30 31 18 19 20 20 19 18 14 12 13 13 12
4 8 1 5 6 7 12 13 9 7 6 3 3 5 7 17 13 15 14 14 17 18 20 23 28 33 39 46 46 45 44 40 40 40 39 38 41 40 28 23 24 23 22 20 17 16 16 16 16
2 8 3 7 3 11 17 12 7 13 17 9 11 19 28 29 28 26 24 22 21 23 26 28 29 32 36 40 45 48 48 45 44 44 46 46 46 42 34 28 26 26 25 23 20 19 18 19 18
7 7 14 10 7 7 10 5 21 10 27 27 36 30 15 26 27 28 34 35 34 28 29 31 33 32 34 40 44 51 51 48 47 48 50 51 50 47 41 35 30 31 29 26 24 23 23 25 24
10 10 9 10 11 7 10 15 7 8 14 35 39 35 39 35 25 31 38 43 45 34 26 29 31 31 34 38 41 50 49 47 49 52 54 52 51 51 49 42 35 34 34 31 30 28 28 30 30
3 19 24 16 19 14 7 17 15 17 46 47 46 43 33 38 32 32 33 39 39 34 28 23 23 27 27 32 37 44 51 49 52 53 54 55 55 55 54 50 41 40 36 34 34 31 33 35 35
10 10 16 18 30 32 29 25 20 44 38 23 19 18 17 25 30 33 35 33 34 35 28 26 23 25 26 25 28 37 43 47 51 53 54 54 55 58 58 56 52 46 41 37 37 35 37 39 39
4 9 22 28 50 42 17 10 4 22 19 22 14 23 29 26 20 27 31 31 33 36 33 28 25 22 26 25 23 25 33 36 38 42 45 49 53 56 58 58 55 49 44 40 40 41 42 44 46
7 10 15 31 17 9 5 1 14 19 24 26 27 24 14 13 9 13 14 6 15 26 26 20 16 10 18 22 22 23 25 33 36 39 40 43 45 45 47 50 50 47 41 42 44 47 47 48 50
6 4 6 9 5 1 8 14 13 21 28 41 31 15 17 18 22 19 16 15 7 5 14 19 19 10 12 19 21 21 23 29 32 35 35 38 37 37 37 41 43 39 41 46 49 50 50 49 51
6 7 9 15 5 5 6 11 25 42 39 41 18 26 29 28 25 24 20 16 12 11 8 14 15 15 15 23 25 24 22 25 27 27 29 31 34 36 38 40 39 40 44 51 51 52 53 53 53
12 9 9 9 7 1 8 18 19 52 36 18 33 35 34 37 41 36 32 28 23 24 23 18 14 11 10 12 12 14 15 17 18 17 20 24 29 32 35 37 39 44 48 51 53 54 55 57 57
5 7 10 12 14 2 14 10 22 38 30 21 41 47 46 50 46 46 48 47 43 36 28 24 14 17 7 6 9 10 8 11 15 16 19 17 23 25 29 35 39 42 46 48 50 54 55 59 59
13 14 14 10 13 5 9 22 14 29 19 40 49 48 49 50 52 53 54 57 59 57 54 45 39 33 29 24 22 15 7 5 1 6 13 17 20 21 22 27 34 39 42 42 45 51 55 57 59
8 10 9 13 7 8 3 15 7 12 40 48 47 46 46 50 54 55 56 58 56 59 58 54 52 48 44 35 24 19 15 11 7 7 9 12 15 18 19 18 22 29 37 41 43 47 53 56 55
7 14 13 9 5 6 6 7 4 5 16 26 33 44 46 49 50 51 52 54 54 52 46 45 43 41 41 38 36 36 34 33 34 30 25 20 20 20 21 23 20 16 24 35 40 43 48 52 58
13 6 7 4 5 4 6 6 8 12 7 10 18 38 42 43 45 47 48 47 45 42 40 38 36 34 34 32 31 30 30 28 25 24 23 22 22 23 24 26 29 31 31 31 34 42 47 52 58
9 6 10 10 5 1 11 12 7 10 16 13 23 33 39 40 39 39 39 38 39 34 33 32 32 32 31 31 31 31 31 31 29 30 31 31 30 29 29 30 30 33 37 42 47 46 46 51 59
6 9 2 6 4 10 8 5 7 9 21 29 30 37 36 33 32 32 31 32 32 33 32 29 28 28 27 25 25 28 28 31 35 38 40 41 41 41 40 42 40 39 39 40 45 52 59 58 58
12 14 10 13 7 8 9 10 4 11 36 49 45 38 31 26 21 23 24 25 26 24 22 26 30 30 29 28 27 25 25 28 31 35 40 44 47 47 48 47 46 45 43 44 45 47 51 61 69
10 9 2 11 5 6 8 3 5 13 16 26 35 32 26 18 13 13 13 14 16 20 24 26 26 26 29 31 30 30 32 34 34 34 36 41 46 50 53 56 59 55 51 50 52 52 51 53 59
6 7 6 5 4 7 8 10 8 18 21 15 22 31 26 20 12 6 7 11 15 21 26 29 31 34 40 43 44 46 49 47 47 48 49 49 49 51 55 58 61 64 63 60 62 62 59 57 56
2 1 6 5 7 8 3 10 2 29 27 27 33 36 31 23 15 6 5 6 10 14 22 32 33 37 41 47 49 52 55 56 56 60 63 65 65 62 64 66 68 67 67 67 70 71 71 67 66
1 9 10 8 10 6 4 18 5 24 32 39 34 27 28 22 16 7 2 7 8 13 22 34 33 37 43 48 51 57 63 68 71 75 77 77 79 79 79 78 77 75 73 72 73 75 77 77 76
Wind_Direction_850mb
326 310 310 76 56 63 299 278 150 91 51 167 235 176 203 227 161 211 188 204 158 169 176 185 192 195 197 197 191 188 188 187 187 188 179 167 176 189 203 204 210 222 229 266 288 310 315 315 318
333 344 52 77 82 68 280 275 171 217 192 158 207 186 260 281 224 217 169 199 176 170 186 189 194 199 203 203 201 198 195 196 197 200 191 188 197 199 217 225 227 234 241 258 268 286 300 285 263
360 22 43 88 107 164 194 237 229 283 163 10 106 237 292 206 204 274 254 199 211 191 191 197 200 202 205 207 206 205 206 207 206 205 209 212 238 241 227 233 240 248 253 264 280 291 294 295 273
343 32 60 79 244 246 190 201 225 139 313 34 34 340 270 223 241 316 282 245 222 217 202 202 207 207 208 210 211 212 213 214 212 213 219 220 248 263 246 232 233 243 246 254 268 285 287 282 258
23 50 48 30 283 274 218 149 94 33 330 250 215 310 302 237 222 150 173 270 242 226 216 204 209 214 214 213 215 217 218 219 216 215 221 234 243 266 255 233 236 247 260 275 287 275 255 237 224
65 65 54 319 284 286 318 165 114 63 12 359 344 312 308 278 199 182 152 202 249 233 226 218 213 216 219 219 219 221 223 223 219 220 227 233 242 255 244 234 237 246 260 275 277 271 262 237 222
88 77 201 223 257 307 274 167 128 164 283 47 334 292 286 287 252 247 231 269 259 253 236 228 226 220 222 224 223 224 225 224 223 225 228 224 238 255 260 240 237 244 256 264 260 252 235 225 219
47 90 309 268 302 287 344 339 345 322 314 151 242 249 283 327 296 266 255 284 285 262 249 240 232 229 226 225 226 227 228 225 226 227 227 224 234 260 267 258 244 250 259 262 254 245 233 229 229
144 61 255 249 21 289 337 3 354 319 286 279 264 276 297 300 308 271 268 275 274 278 262 249 241 236 235 233 231 229 230 231 229 229 229 232 236 256 276 269 251 256 261 261 257 254 245 241 244
121 126 223 213 182 254 291 299 311 316 296 294 296 301 285 322 314 296 280 284 284 276 288 266 251 244 239 238 236 231 233 225 228 231 232 237 242 258 268 275 254 255 256 257 255 251 246 246 248
177 198 220 251 258 265 280 285 257 295 298 295 301 309 303 306 295 291 285 281 287 281 271 278 261 256 250 244 239 232 237 229 229 231 237 242 246 255 265 275 267 258 258 257 253 250 246 245 246
189 248 247 274 290 305 270 297 301 266 281 308 305 304 304 308 308 303 296 298 286 285 276 269 268 257 259 257 245 238 238 238 237 239 239 243 249 258 266 272 276 266 265 261 257 253 247 247 248
212 256 256 264 282 282 277 259 267 281 297 309 326 325 343 344 321 302 291 299 272 270 271 263 264 265 259 264 264 248 241 241 243 245 246 250 255 263 269 273 275 269 262 262 260 256 253 251 251
235 283 284 289 283 280 258 270 158 274 313 311 347 354 344 341 340 305 286 274 264 263 265 255 255 266 252 259 273 275 259 252 248 248 252 256 262 267 270 271 272 274 264 263 263 262 258 255 254
295 322 316 273 279 229 198 300 226 286 290 291 311 2 357 43 67 61 51 7 265 254 250 241 243 249 248 260 268 279 281 266 254 250 262 264 267 271 272 274 272 278 268 269 267 265 260 257 254
326 40 326 295 168 129 136 264 266 307 292 287 326 75 95 89 84 83 72 70 71 250 224 197 195 190 224 242 249 261 273 270 254 261 263 269 274 275 277 280 281 283 278 277 275 271 267 264 261
347 240 216 309 317 133 140 249 273 298 287 296 54 114 110 97 85 71 66 67 73 88 142 179 169 162 184 221 228 235 247 254 256 259 265 269 270 272 275 280 284 283 280 281 280 275 272 270 269
222 220 236 236 271 41 253 246 277 280 297 285 128 116 102 88 76 75 74 77 84 91 104 125 130 138 152 174 209 229 241 254 261 273 273 274 276 276 276 275 277 278 282 283 282 281 278 276 274
168 210 229 253 261 280 266 279 261 293 296 124 121 115 101 88 86 86 82 81 83 88 91 89 95 84 120 151 176 190 214 225 241 251 257 272 275 278 278 279 282 282 285 290 290 285 281 278 277
242 251 255 283 257 226 294 295 31 27 22 112 114 110 105 99 93 87 82 78 75 74 73 74 73 72 72 75 70 67 81 70 355 260 263 267 268 266 277 285 282 280 280 285 286 283 284 282 279
213 207 219 233 302 292 326 295 108 51 72 80 91 104 101 95 89 85 82 76 72 68 65 64 65 66 63 61 62 65 67 57 39 13 340 317 301 287 275 272 285 285 281 281 285 284 283 283 281
256 233 213 236 115 232 79 277 43 93 72 68 93 105 103 97 90 82 76 73 66 60 56 53 51 51 51 46 42 38 35 32 28 17 5 346 328 308 292 282 274 270 287 290 289 286 283 280 278
223 173 173 161 140 54 318 115 260 131 107 117 106 110 106 98 91 85 78 70 63 59 53 48 44 41 37 31 25 21 18 16 8 357 354 354 348 330 309 295 288 287 281 277 280 287 283 281 279
152 102 51 39 92 246 211 161 247 193 180 151 135 121 111 103 92 79 71 65 61 55 49 42 39 37 32 24 19 14 9 1 353 347 341 341 341 336 331 324 307 294 290 287 283 277 276 281 280
112 86 333 345 341 227 169 132 256 337 141 146 139 130 117 104 91 77 61 51 46 41 41 43 47 44 36 27 18 13 5 356 353 349 346 339 335 333 334 327 321 314 307 303 296 287 279 274 273
188 169 164 205 210 245 274 241 301 48 105 131 138 134 128 113 88 66 52 40 40 41 43 37 30 28 24 19 18 12 359 355 351 343 338 336 334 330 327 324 323 320 316 311 303 298 291 283 276
189 185 198 106 44 67 224 40 114 108 102 129 141 146 140 127 95 68 57 49 47 51 49 44 41 38 29 21 15 6 357 350 342 334 328 321 319 318 316 314 314 316 315 314 308 304 298 291 285
168 161 69 8 167 260 277 268 200 177 172 172 168 169 164 170 171 129 60 46 57 52 39 27 19 14 8 5 4 1 358 352 347 341 335 329 322 318 313 310 309 307 307 308 307 304 302 297 293
128 168 84 133 152 185 243 254 242 177 175 178 188 191 188 194 202 183 124 81 47 26 14 3 356 351 349 346 345 343 342 340 334 332 331 329 323 320 316 314 311 308 307 303 300 299 300 299 297
345 202 166 155 225 227 174 261 96 157 168 176 192 203 207 209 195 173 54 16 5 354 353 349 343 339 337 334 332 332 330 329 327 324 322 321 319 317 314 312 309 306 304 301 296 295 293 294 294